COSMOS 2346

Satellite information

Favourite Embed

Satellite Type and Status

PAYLOADIN ORBIT

Key statistics

Satellite COSMOS 2346 at a glance.

Uptime

10310

Days in orbit

Revolutions

≈ 13.8

Per day

Orbit

LEO

Low Earth Orbit

Inclination

82.9

Latest

Satellite identification and parameters

Extended collection of information and parameters for COSMOS 2346.

Object identification

Identified? True

Debris? False

Object name: COSMOS 2346

International designator: 1997-052A

Object number (NORAD): 24953

Object ID (CCSDS): 24953

Country: COMMONWEALTH OF INDEPENDENT STATES (CIS)

Current information (Y/N): Y

RCS size: LARGE

Orbital parameters

Period: 104.362 minutes

Inclination: 82.9218 deg

SMA: 7342.705 km

Apoapsis: 994.454 km

Periapsis: 934.687 km

RAAN: 125.5885 deg

Eccentricy: 0.0040698

Argument of periapsis: 122.4227 deg

Mean anomaly: 299.0599 deg

Mean motion: 13.79807824 rev/day

Mean motion (dot): 0.00000074 rev/day2

B* drag term: 0.000056204144 1/REarth

Two-line elements (TLE)

Creation date: Dec. 14, 2025, 6:24 p.m.

Reference frame: TEME

Reference center: EARTH

Epoch: Dec. 14, 2025, 8:30 a.m. UTC

TLE line 0: 0 COSMOS 2346

TLE line 1: 1 24953U 97052A 25348.35479138 .00000074 00000-0 56204-4 0 9990

TLE line 2: 2 24953 82.9218 125.5885 0040698 122.4227 299.0599 13.79807824420880

Live tracking on map

Real-time ground track for satellite COSMOS 2346.

In-orbit conjunctions

A list of the most updated potential collisions computed for object COSMOS 2346.

Target Orbit TCA Probability of collision Miss distance Type
FENGYUN 1C DEB SSO 2025-12-06 16:33:52 0.0004391468 101.0 (m) DEBRIS
THORAD AGENA D DEB SSO 2025-10-03 02:20:13 0.0001130167 69.0 (m) DEBRIS
FENGYUN 1C DEB SSO 2025-03-18 05:28:20 0.0002147651 51.0 (m) DEBRIS

Associated space launch

Navigation satellite providing location information for the Tsiklon-B navigation system

COSMOS 2346 was lifted into orbit during the mission ‘Kosmos-3M | Parus 89’, on board a Kosmos-3M space rocket.

The launch took place on Sept. 23, 1997, 4:44 p.m. from 132/1 (132L).

For more information about the launch, click the button.

Launch to space Kosmos-3M | Parus 89
Kosmos-3M | Parus 89

Agency: N/A

Status: Launch Successful

Launch date: Sept. 23, 1997, 4:44 p.m. UTC

Rocket: Kosmos-3M

Launch pad: 132/1 (132L)

Location: Plesetsk Cosmodrome, Russian Federation

...

Latest news about this satellite

There are no fresh news available about this satellite. Check back as we update our databases every day.


Newsletter sign-up

Weekly statistics, charts and insights to help you stay on top of the space industry.